MICROMAS-2A (43131 NORAD) Tracking and Keplerian Element Data

This shows tracking and keplerian element data for the satellite.

Feedback or suggestion? Click here.




ElementValue
Catalog43131
NameMICROMAS-2A
Epoch Orbit9360
Epoch Day262.17790711
Epoch Year2019
RAAN330.1026
Inclination97.4816
Eccentricity0.0007795
Argument of Perigee292.4405
Mean Anonmoly67.6006
Mean Motion15.24336426
Decay Rate1.158E-05
L11 43131U 18004W 19262.17790711 .00001158 00000-0 50298-4 0 9991
L22 43131 97.4816 330.1026 0007795 292.4405 67.6006 15.24336426 93607

Live tracking and technical data element details for MICROMAS-2A (NORAD 43131). MICROMAS-2A can be tracked NOW for your location showing map with azimuth and elevation plus other details from your city location.

Track the satellite on the map from your city or location and see movement details for azimuth, elevation, latitude, longitude, range, height, and movement on the map or in text.







IsCatalogInMostPopularTable: catalog: 43131, numindb: 411
Update: records affected: 1



GetName: 43131 MICROMAS-2A

Hit Count: updated at: Thu, 19 Sep 2019 16:48:06 GMT